Regional Weather Roundup
Issued by NWS New Orleans/Baton Rouge, LA

Home | Current Version | Previous Version | Graphics & Text | Print | Product List | Glossary On
Versions: 1 2 3 4 5 6 7 8 9 10 11 12 13 14 15 16 17 18 19 20 21 22 23 24 25 26 27 28 29 30 31 32 33 34 35 36 37 38 39 40 41 42 43 44 45 46 47 48 49 50
744
ASUS44 KLIX 210410
RWRLIX
NEW ORLEANS REGIONAL WEATHER ROUNDUP
NATIONAL WEATHER SERVICE NEW ORLEANS LA
1100 PM CDT MON OCT 20 2014

NOTE: "FAIR" INDICATES FEW OR NO CLOUDS BELOW 12,000 FEET WITH NO
      SIGNIFICANT WEATHER AND/OR OBSTRUCTIONS TO VISIBILITY.
      SKY/WX - SKY CONDITION AND SIGNIFICANT WEATHER.
      TMP - AIR TEMPERATURE.     DP    - DEWPOINT TEMPERATURE.
      RH  - RELATIVE HUMIDITY.   PRES  - PRESSURE.
      HI  - HEAT INDEX.          WCI   - WIND CHILL INDEX.

*  THESE STATIONS ARE NOT NWS OR FAA STATIONS AND ARE NOT UNDER
   NWS QUALITY CONTROL.

LAZ038-040-048-061>063-065>067-069-210500-
SOUTHEAST LOUISIANA

CITY           SKY/WX    TMP DP  RH WIND       PRES   REMARKS
N.O. AUDUBON   NOT AVBL
N.O. INTL ARPT PTCLDY    66  55  67 CALM      30.02S
N.O. LAKEFRONT CLEAR     73  55  53 NE12      30.02F
N.O. DOWNTOWN*   N/A     72  54  53 NE3       30.03S
SLIDELL        CLEAR     55  52  89 CALM      30.02S
BATON ROUGE    CLEAR     57  54  89 CALM      30.04R
BOOTHVILLE     CLEAR     70  64  81 CALM      30.01S
BELLE CHASSE   PTCLDY    58  54  86 CALM      30.01F
BOGALUSA*        N/A     53  50  87 CALM      30.05S
NEW ROADS*       N/A     61  55  81 N3        30.04S
GONZALES*        N/A     57  57 100 CALM      30.02F
HAMMOND*         N/A     55  52  88 CALM      30.05S
HOUMA*         CLEAR     60  57  89 CALM      30.02S
PORT FOURCHON* CLEAR     72  63  73 NE7       30.04S

$$

MSZ070-080>082-210500-
SOUTHERN MISSISSIPPI

CITY           SKY/WX    TMP DP  RH WIND       PRES   REMARKS
MCCOMB         CLEAR     56  52  86 CALM      30.05R
GULFPORT       CLEAR     57  53  86 CALM      30.02S
BILOXI         CLEAR     63  51  65 VRB1      30.01F
PASCAGOULA     CLEAR     50  48  93 N3        30.02S

$$

COASTAL OBSERVATIONS
LAKE AND NEARSHORE STATIONS

STATION/POSITION TIME  TEMP    WIND        PRES    WAVE
                       AIR SEA DIR/SP/G            HT/PER
                 (UTC) (F)     (DEG/KT/KT) (MB)    (FT/S)
PASCAGOULA       0400   62     360/  7/  8 1015.7
WAVELAND YACHT   0400   68      20/  7/  9 1015.7
GRAND ISLE       0400   71 78   60/  6/  8 1016.5
SOUTHWEST PASS   0400   73 84              1016.4
NEW CANAL        0400   73 73   40/ 10/ 11 1016.8
SHELL BEACH      0400   73 70   10/  8/  9 1016.1

OFFSHORE STATIONS

STATION/POSITION TIME  TEMP    WIND        PRES    WAVE
                       AIR SEA DIR/SP/G            HT/PER
                 (UTC) (F)     (DEG/KT/KT) (MB)    (FT/S)
64 S DAUPHIN ISL 0253   74 79   30/  8/ 12 1016.5    1/ 5

$$




USA.gov is the U.S. government's official web portal to all federal, state and local government web resources and services.